www.pogodaiklimat.ru

Погода и климат >> Архив погоды >> Танзания >> Занзибар


ПОГОДА в Занзибаре

  • Прогноз погоды в Занзибаре
  • Монитор погоды в Занзибаре

АРХИВ ПОГОДЫ в Занзибаре

Время (UTC), дата Ветер
(напр.,м/с)
 
Видим.   Явления Облачность Т
(С)
Тd
(С)
f
(%)
Тe
(С)
Тes
(С)
Комфортность P
(гПа)
Po
(гПа)
Тmin
(С)
Tmax
(С)
R
(мм)
R24
(мм)
S
(см)
03 10.09 Ю 5 10 км дождь 10/1 210 м
[Cu med, cong As op]
+23.4 +19 +19 1016.0 1014.2 7
06 10.09 В 11 15 км {дождь} 9/3 210 м
[Cu med, cong Ac trans]
+23.8 +21.8 89 +31 +31 очень
душно
1018.3 1016.5 +22.3 14
09 10.09 Ю 12 30 км 8/3 420 м
[Cu med, cong Ac trans]
+26.8 +21.1 71 +34 +34 очень
душно
1017.0 1015.2
12 10.09 Ю 13 30 км 8/3 540 м
[Cu med, cong Ac trans]
+28.5 +23.0 72 +38 +38 очень
душно
1014.4 1012.6
15 10.09 ЮВ 10 30 км 3/3 480 м
[Cu med, cong]
+26.8 +21.9 75 +35 +35 очень
душно
1015.2 1013.3
18 10.09 ЮВ 3 30 км 3/3 420 м
[Cu med, cong]
+24.6 +22.4 88 +32 +32 очень
душно
1016.8 1015.0 +29.0
21 10.09 штиль 0 30 км 3/3 420 м
[Cu med, cong]
+24.5 +22.4 88 +32 +32 очень
душно
1016.7 1014.9
00 11.09 штиль 0 30 км 3/3 330 м
[Cu med, cong]
+23.2 +22.1 94 +32 +32 очень
душно
1014.9 1013.1
03 11.09 штиль 0 30 км 3/3 300 м
[Cu med, cong]
+22.0 +21.4 96 +29 +29 очень
душно
1015.9 1014.1
06 11.09 ЮЗ 5 30 км слаб. дождь 6/6 360 м
[Cu med, cong]
+25.5 +23.2 87 +34 +36 очень
душно
1017.8 1016.0 +22.0 0.1
09 11.09 Ю 5 8000 м слаб. дождь 8/8 330 м
[Sc diur, vesp]
+25.6 +23.1 86 +34 +36 очень
душно
1016.8 1015.0 0.2
12 11.09 СЗ 5 30 км {дождь} 8/8 480 м
[Cu med, cong]
+27.6 +23.4 78 +37 +39 очень
душно
1014.3 1012.5 4
15 11.09 ЮВ 5 30 км 3/3 420 м
[Cu med, cong]
+27.4 +21.8 72 +35 +35 очень
душно
1014.9 1013.1
18 11.09 ЮВ 2 30 км 1/1 330 м
[Cu med, cong]
+24.4 +22.2 88 +32 +32 очень
душно
1016.6 1014.8 +28.1 4
21 11.09 штиль 0 30 км 1/1 300 м
[Cu med, cong]
+22.7 +22.0 96 +31 +31 очень
душно
1016.8 1015.0
00 12.09 штиль 0 30 км 1/1 300 м
[Cu med, cong]
+22.8 +22.1 96 +31 +31 очень
душно
1015.4 1013.6
03 12.09 штиль 0 30 км 3/3 300 м
[Cu med, cong]
+22.5 +21.5 94 +30 +30 очень
душно
1016.7 1014.5
06 12.09 В 5 30 км 5/5 420 м
[Cu med, cong]
+26.0 +23.0 84 +35 +37 очень
душно
1018.2 1016.4 +22.2 4
09 12.09 Ю 10 30 км 5/5 600 м
[Cu med, cong]
+28.8 +23.1 71 +39 +39 очень
душно
1017.3 1015.5
12 12.09 СЗ 8 30 км 8/8 540 м
[Cu med, cong]
+28.4 +23.2 73 +38 +39 очень
душно
1015.1 1013.3
15 12.09 В 5 30 км 1/1 540 м
[Cu med, cong]
+28.0 +21.9 69 +36 +36 очень
душно
1015.3 1013.5
18 12.09 В 5 30 км 3/3 360 м
[Cu med, cong]
+25.0 +22.2 84 +32 +32 очень
душно
1016.0 1014.2 +29.2
21 12.09 В 2 30 км 3/3 360 м
[Cu med, cong]
+23.8 +22.1 90 +31 +31 очень
душно
1016.2 1014.4
00 13.09 штиль 0 30 км 3/3 360 м
[Cu med, cong]
+23.4 +22.0 92 +32 +32 очень
душно
1014.5 1012.7
03 13.09 штиль 0 30 км 5/5 330 м
[Cu med, cong]
+22.2 +21.6 96 +29 +29 очень
душно
1015.8 1014.0
06 13.09 ЮВ 8 30 км 4/4 420 м
[Cu med, cong]
+27.0 +22.8 78 +36 +37 очень
душно
1017.6 1015.8 +22.2
09 13.09 Ю 10 25 км в посл. час дождь 6/6 420 м
[Cu med, cong]
+26.3 +23.4 84 +36 +36 очень
душно
1016.8 1015.0 3
12 13.09 штиль 0 50 км ?/? +28.4 +22.9 72 +38 +38 очень
душно
1014.1 1012.3 3
15 13.09 ЮВ 6 30 км 3/3 480 м
[Cu med, cong]
+27.2 +22.5 76 +36 +36 очень
душно
1014.4 1012.6
18 13.09 В 5 30 км 1/1 420 м
[Cu med, cong]
+25.0 +22.5 86 +33 +33 очень
душно
1015.3 1013.5 +29.5 3
21 13.09 штиль 0 30 км 1/1 420 м
[Cu med, cong]
+24.0 +21.6 86 +31 +31 очень
душно
1015.4 1013.6
00 14.09 штиль 0 30 км 4/4 360 м
[Cu med, cong]
+23.2 +22.2 94 +32 +32 очень
душно
1014.8 1013.0
03 14.09 штиль 0 30 км 1/1 360 м
[Cu med, cong]
+22.4 +21.3 94 +29 +29 очень
душно
1015.4 1013.6
06 14.09 В 7 30 км 5/5 420 м
[Cu med, cong]
+27.0 +22.9 78 +36 +37 очень
душно
1017.0 1015.2 +22.0 3
09 14.09 Ю 9 30 км 6/6 480 м
[Cu med, cong]
+29.0 +23.5 72 +39 +40 очень
душно
1015.4 1013.6
12 14.09 В 8 30 км 6/6 600 м
[Cu med, cong]
+29.5 +22.6 66 +39 +40 очень
душно
1013.2 1011.4
15 14.09 В 8 30 км 1/1 540 м
[Cu med, cong]
+27.7 +21.8 70 +36 +36 очень
душно
1013.5 1011.7
18 14.09 В 5 30 км 1/1 420 м
[Cu med, cong]
+25.0 +22.6 87 +33 +33 очень
душно
1015.2 1013.4 +29.6
21 14.09 штиль 0 30 км 1/1 360 м
[Cu med, cong]
+24.0 +22.6 92 +31 +31 очень
душно
1015.6 1013.8
00 15.09 штиль 0 30 км 1/1 300 м
[Cu med, cong]
+22.6 +21.8 95 +30 +30 очень
душно
1014.8 1013.0
03 15.09 штиль 0 30 км 3/3 300 м
[Cu med, cong]
+22.0 +21.3 96 +29 +29 очень
душно
1015.8 1014.0
06 15.09 ЮВ 8 30 км 3/3 420 м
[Cu med, cong]
+27.3 +22.1 73 +35 +36 очень
душно
1017.9 1016.1 +21.7
09 15.09 Ю 10 30 км 4/4 480 м
[Cu med, cong]
+28.0 +22.2 71 +37 +37 очень
душно
1016.8 1015.0
12 15.09 ЮВ 8 30 км 4/3 660 м
[Cu med, cong]
+30.5 +19.5 52 +36 +38 очень
душно
1014.1 1012.3
15 15.09 В 11 30 км 1/1 540 м
[Cu med, cong]
+28.4 +20.1 61 +35 +35 очень
душно
1014.5 1012.7
21 15.09 В 4 30 км 1/1 420 м
[Cu med, cong]
+24.5 +22.3 88 +32 +32 очень
душно
1015.9 1014.1
00 16.09 штиль 0 30 км 1/1 360 м
[Cu med, cong]
+22.8 +21.8 94 +31 +31 очень
душно
1014.5 1012.7
03 16.09 штиль 0 30 км 1/1 360 м
[Cu med, cong]
+22.0 +21.3 96 +29 +29 очень
душно
1015.3 1013.5
06 16.09 Ю 7 30 км 4/3 360 м
[Cu med, cong]
+25.8 +23.3 86 +35 +36 очень
душно
1016.8 1015.0 +22.0
09 16.09 Ю 10 30 км 4/4 600 м
[Cu med, cong]
+29.0 +22.1 66 +37 +38 очень
душно
1016.2 1014.4
12 16.09 ЮВ 9 30 км 3/3 800 м
[Cu med, cong]
+30.6 +20.7 56 +38 +39 очень
душно
1014.3 1012.5
15 16.09 ЮВ 10 30 км 3/3 600 м
[Cu med, cong]
+28.2 +21.7 68 +36 +36 очень
душно
1014.7 1012.2
18 16.09 В 2 30 км 1/1 480 м
[Cu med, cong]
+25.1 +22.1 83 +32 +32 очень
душно
1015.8 1014.0 +31.0
21 16.09 штиль 0 30 км 1/1 420 м
[Cu med, cong]
+24.0 +22.6 92 +31 +31 очень
душно
1015.5 1013.7

 

Местоположение метеостанции Занзибар (Танзания): широта -6.22 долгота 39.22 высота над уровнем моря 18 м.

В архиве по умолчанию представлена погода в Занзибаре за последнюю неделю. Архивные данные за месяц целиком и за предыдущие месяцы, начиная с января 2011 года, Вы можете получить, выбрав интересующий диапазон дат из раскрывающегося списка и нажав кнопку "Ввод!".


*Определитесь, кто Вы:
робот инопланетянин человек

Внимание! Время в таблицах - всемирное. Для получения местного времени необходимо прибавить поправку, которая равна 3 ч.

Смотрите также архив погоды в соседних городах и на ближайших метеорологических станциях:

Погода в Дар-эс-Саламе (Танзания) (72 км)
Погода в Морогоро (Танзания) (186 км)
Погода в Момбасе (Кения) (248 км)
Погода в Вои (Кения) (322 км)
Погода в Малинди (Кения) (347 км)
Погода в Додоме (Танзания) (382 км)
Погода в Аэропорту Килиманжаро (Танзания) (392 км)
Погода в Иринге (Танзания) (412 км)
Погода в Мтваре (Танзания) (462 км)
Погода в Макинду (Кения) (464 км)

Пояснения к столбцам:

Ветер - указаны скорость ветра в м/с - средняя за 10 мин, порывы в срок и между сроками (в фигурных скобках) и направление, откуда дует ветер: С - северный, СВ - северо-восточный, В - восточный, ЮВ - юго-восточный, Ю - южный, ЮЗ - юго-западный, З - западный, СЗ - северо-западный.
Видимость - горизонтальная дальность видимости в метрах или километрах. При видимости от 1 до 10 км при отсутствии осадков обычно наблюдается дымка, при ухудшении видимости до 1 км и менее - туман. В сухую погоду видимость может ухудшаться дымом, пылью или мглою.
Явления - указаны атмосферные явления, наблюдавшиеся в срок или в последний час перед сроком; фигурными скобками обозначены явления, наблюдавшиеся между сроками (за 1-3 часа до срока); квадратными скобками обозначены град или гололедные отложения с указанием их диаметра в мм.
Облачность - указаны через наклонную черту общая и нижняя облачность в баллах и высота нижней границы облаков в метрах; квадратными скобками обозначены формы облаков: Ci - перистые, Cs - перисто-слоистые, Cc - перисто-кучевые, Ac - высококучевые, As - высокослоистые, Sc - слоисто-кучевые, Ns - слоисто-дождевые, Cu - кучевые, Cb - кучево-дождевые. Подробнее классификацию облаков см. в Атласе облаков (PDF).
T - Температура воздуха - температура, измеренная на высоте 2 м над землей.
Td - Температура точки росы - температура, при понижении до которой содержащийся в воздухе водяной пар достигнет насыщения.
f - Относительная влажность воздуха - влажноcть воздуха, измеренная на высоте 2 м над землей.
Te - Эффективная температура - температура, которую ощущает одетый по сезону человек в тени. Характеристика душности погоды. При расчете учитывается влияние влажности воздуха и скорости ветра на теплоощущения человека.
Tes - Эффективная температура на солнце - температура, которую ощущает человек, с поправкой на солнечный нагрев. Характеристика знойности погоды. Зависит от высоты солнца над горизонтом, облачности и скорости ветра. Ночью, в пасмурную погоду, а также при ветре 12 м/с и более поправка равна нулю.
P - Атмосферное давление - приведенное к уровню моря атмосферное давление.
Po - Атмосферное давление - измеренное на уровне метеостанции атмосферное давление.
Tmin - Минимальная температура - минимум температуры воздуха на высоте 2 м над землей.
Tmax - Максимальная температура - максимум температуры воздуха на высоте 2 м над землей.
R - Количество осадков - Количество выпавших осадков за период времени, мм. При наведении курсора мыши на число - период времени, за который выпало указанное количество осадков.
R24 - Количество осадков - Количество выпавших осадков за 24 часа, мм.
S - Снежный покров - Высота снежного покрова, см. При наведении курсора мыши на число - состояние снежного покрова и степень покрытия местности в баллах.